Weather History for Mobile, AL

Change the Weather History Date:

Wednesday, February 13, 2013

  Actual Average Record
Temperature  
Mean Temperature 55 °F 53 °F  
Max Temperature 69 °F 64 °F 84 °F (1962)
Min Temperature 41 °F 43 °F -1 °F (1899)
Degree Days  
Heating Degree Days 10 12  
Month to date heating degree days 89 169  
Since 1 July heating degree days 1000 1290  
Cooling Degree Days 0 0  
Month to date cooling degree days 0 0  
Year to date cooling degree days 26 7  
Growing Degree Days 5 (Base 50)    
Moisture  
Dew Point 51 °F    
Average Humidity 85    
Maximum Humidity 93    
Minimum Humidity 77    
Precipitation  
Precipitation 0.20 in 0.18 in 3.97 in (1927)
Month to date precipitation 3.95 2.37  
Year to date precipitation 6.82 8.02  
Snow  
Snow 0.00 in 0.00 in - ()
Month to date snowfall 0.0 0.1  
Since 1 July snowfall 0.0 0.1  
Snow Depth 0.00 in    
Sea Level Pressure  
Sea Level Pressure 29.92 in    
Wind  
Wind Speed 7 mph (WNW)    
Max Wind Speed 17 mph    
Max Gust Speed 23 mph    
Visibility 8 miles    
Events Rain    
T = Trace of Precipitation, MM = Missing Value Source: NWS Daily Summary

Daily Weather History Graph

Daily Weather History Graph

Search for Another Location

Airport:

Trip Planner

Search our weather history database for the weather conditions in past years. The results will help you decide how hot, cold, wet, or windy it might be!

Date:

Astronomy

Feb. 13, 2013 Rise Set
Actual Time 6:35 AM CST 5:39 PM CST
Civil Twilight 6:10 AM CST 6:04 PM CST
Nautical Twilight 5:42 AM CST 6:32 PM CST
Astronomical Twilight 5:14 AM CST 7:00 PM CST
Moon 8:23 AM CST (2/13) 9:20 PM CST (2/13)
Length of Visible Light 11h 53m
Length of Day
11h 04m
Waxing Crescent, 14% of the Moon is Illuminated
Feb 13
Waxing Crescent
Feb 17
First Quarter
Feb 25
Full
Mar 4
Last Quarter
Mar 11
New

Hourly Weather History & Observations

Time (CST) Temp. Windchill Dew Point Humidity Pressure Visibility Wind Dir Wind Speed Gust Speed Precip Events Conditions
12:05 AM 68.0 °F - 66.2 °F 94% 29.78 in 7.0 mi SSW 8.1 mph - N/A   Partly Cloudy
12:33 AM 68.0 °F - 64.4 °F 88% 29.79 in 7.0 mi WSW 6.9 mph - N/A   Scattered Clouds
12:42 AM 68.0 °F - 64.4 °F 88% 29.80 in 6.0 mi WSW 5.8 mph - N/A   Mostly Cloudy
12:56 AM 68.0 °F - 64.9 °F 90% 29.79 in 7.0 mi WSW 9.2 mph - N/A   Overcast
1:08 AM 68.0 °F - 64.4 °F 88% 29.80 in 7.0 mi WSW 8.1 mph 17.3 mph N/A   Overcast
1:31 AM 68.0 °F - 64.4 °F 88% 29.80 in 9.0 mi West 9.2 mph - N/A   Overcast
1:46 AM 66.2 °F - 62.6 °F 88% 29.81 in 10.0 mi WNW 10.4 mph 19.6 mph N/A   Overcast
1:56 AM 64.9 °F - 62.1 °F 90% 29.81 in 10.0 mi WNW 6.9 mph 18.4 mph N/A   Overcast
2:04 AM 64.4 °F - 62.6 °F 94% 29.82 in 10.0 mi WNW 10.4 mph 16.1 mph N/A   Overcast
2:26 AM 62.6 °F - 59.0 °F 88% 29.83 in 10.0 mi West 12.7 mph 20.7 mph N/A   Mostly Cloudy
2:56 AM 61.0 °F - 55.9 °F 83% 29.84 in 10.0 mi WNW 10.4 mph 18.4 mph N/A   Scattered Clouds
3:37 AM 57.2 °F - 55.4 °F 94% 29.85 in 10.0 mi West 4.6 mph - N/A   Mostly Cloudy
3:46 AM 57.2 °F - 55.4 °F 94% 29.86 in 10.0 mi West 5.8 mph - N/A   Scattered Clouds
3:56 AM 57.0 °F - 55.0 °F 93% 29.85 in 10.0 mi West 4.6 mph - N/A   Partly Cloudy
4:56 AM 55.9 °F - 52.0 °F 87% 29.88 in 10.0 mi West 5.8 mph - N/A   Clear
5:56 AM 54.0 °F - 52.0 °F 93% 29.88 in 7.0 mi West 6.9 mph - N/A   Scattered Clouds
6:27 AM 53.6 °F - 50.0 °F 88% 29.89 in 7.0 mi West 8.1 mph - N/A   Mostly Cloudy
6:56 AM 53.1 °F - 50.0 °F 89% 29.93 in 7.0 mi West 9.2 mph - N/A   Mostly Cloudy
7:56 AM 53.1 °F - 46.0 °F 77% 29.93 in 7.0 mi NW 11.5 mph 18.4 mph N/A   Overcast
8:56 AM 53.1 °F - 46.0 °F 77% 29.95 in 10.0 mi WNW 13.8 mph 19.6 mph N/A   Mostly Cloudy
9:56 AM 54.0 °F - 46.0 °F 75% 29.96 in 10.0 mi WNW 9.2 mph 17.3 mph N/A   Overcast
10:56 AM 52.0 °F - 45.0 °F 77% 29.96 in 7.0 mi NW 11.5 mph - 0.00 in Rain Rain
11:31 AM 51.8 °F - 46.4 °F 82% 29.98 in 7.0 mi Calm Calm - 0.01 in Rain Light Rain
11:56 AM 50.0 °F - 46.0 °F 86% 29.97 in 3.0 mi NW 9.2 mph - 0.02 in Rain Rain
12:56 PM 48.0 °F - 45.0 °F 89% 29.97 in 3.0 mi Variable 4.6 mph - 0.08 in Rain Rain
1:06 PM 46.4 °F 42.9 °F 44.6 °F 93% 29.97 in 3.0 mi NW 6.9 mph - 0.01 in Rain Light Rain
1:56 PM 46.0 °F 41.9 °F 43.0 °F 89% 29.97 in 3.0 mi WNW 8.1 mph - 0.07 in Rain Rain
2:56 PM 46.9 °F - 44.1 °F 90% 29.97 in 5.0 mi NW 5.8 mph - 0.03 in   Overcast
3:56 PM 46.9 °F - 44.1 °F 90% 29.98 in 10.0 mi NW 5.8 mph - 0.00 in   Mostly Cloudy
4:56 PM 48.0 °F - 45.0 °F 89% 29.98 in 10.0 mi NW 3.5 mph - N/A   Overcast
5:56 PM 46.9 °F - 45.0 °F 93% 30.00 in 10.0 mi NW 3.5 mph - N/A   Clear
6:56 PM 46.9 °F - 44.1 °F 90% 30.01 in 10.0 mi NW 4.6 mph - N/A   Scattered Clouds
7:56 PM 46.9 °F - 43.0 °F 86% 30.03 in 10.0 mi WNW 3.5 mph - N/A   Scattered Clouds
8:56 PM 46.0 °F 43.1 °F 41.0 °F 83% 30.06 in 10.0 mi NW 5.8 mph - N/A   Partly Cloudy
9:56 PM 45.0 °F 42.6 °F 39.9 °F 82% 30.07 in 10.0 mi NW 4.6 mph - N/A   Partly Cloudy
10:56 PM 42.1 °F 40.2 °F 37.9 °F 85% 30.07 in 10.0 mi NNW 3.5 mph - N/A   Partly Cloudy
11:56 PM 41.0 °F 39.0 °F 37.9 °F 89% 30.08 in 10.0 mi North 3.5 mph - N/A   Clear